This is the latest recevied weather packets stored in our database for station/object KM8V-8. If no packets are shown the sender has not sent any weather packets the latest 10 day(s).
| Time | Temp. | Humidity | Pressure | Rain* | Wind** | Luminosity | Snow |
|---|---|---|---|---|---|---|---|
| 1777680922 | 6.11° C | 79% | 1014.5 hPa | 0 mm | - | 14 W/m² | - |
| 1777680622 | 6.67° C | 78% | 1014.4 hPa | 0 mm | - | 17 W/m² | - |
| 1777680323 | 6.67° C | 77% | 1014.4 hPa | 0 mm | - | 22 W/m² | - |
| 1777680022 | 6.67° C | 77% | 1014.3 hPa | 0 mm | - | 25 W/m² | - |
| 1777679722 | 6.67° C | 76% | 1014.3 hPa | 0 mm | - | 28 W/m² | - |
| 1777679423 | 6.67° C | 75% | 1014.3 hPa | 0 mm | - | 31 W/m² | - |
| 1777679122 | 6.67° C | 75% | 1014.3 hPa | 0 mm | - | 35 W/m² | - |
| 1777678823 | 7.22° C | 75% | 1014.3 hPa | 0 mm | - | 37 W/m² | - |
| 1777678523 | 7.22° C | 73% | 1014.3 hPa | 0 mm | - | 43 W/m² | - |
| 1777678223 | 7.78° C | 72% | 1014.2 hPa | 0 mm | - | 55 W/m² | - |
| 1777677923 | 7.78° C | 71% | 1014.2 hPa | 0 mm | - | 90 W/m² | - |
| 1777677623 | 7.78° C | 72% | 1014.1 hPa | 0 mm | - | 137 W/m² | - |
| 1777677323 | 7.22° C | 73% | 1014.1 hPa | 0 mm | - | 150 W/m² | - |
| 1777677023 | 7.22° C | 75% | 1014.1 hPa | 0 mm | - | 155 W/m² | - |
| 1777676723 | 7.22° C | 76% | 1014.1 hPa | 0 mm | - | 106 W/m² | - |
| 1777676424 | 6.67° C | 77% | 1014.1 hPa | 0 mm | - | 104 W/m² | - |
| 1777676124 | 6.67° C | 77% | 1014.1 hPa | 0 mm | - | 100 W/m² | - |
| 1777675824 | 6.67° C | 77% | 1014 hPa | 0 mm | - | 112 W/m² | - |
| 1777675524 | 6.67° C | 77% | 1014.1 hPa | 0 mm | - | 115 W/m² | - |
| 1777675224 | 6.67° C | 77% | 1014.1 hPa | 0 mm | - | 117 W/m² | - |
| 1777674924 | 6.67° C | 77% | 1014.1 hPa | 0 mm | - | 119 W/m² | - |
| 1777674625 | 6.67° C | 78% | 1014 hPa | 0 mm | - | 128 W/m² | - |
| 1777674325 | 6.67° C | 77% | 1013.9 hPa | 0 mm | - | 133 W/m² | - |
| 1777674025 | 6.67° C | 77% | 1013.9 hPa | 0 mm | - | 141 W/m² | - |
| 1777673724 | 6.67° C | 78% | 1014 hPa | 0 mm | - | 190 W/m² | - |
* Rain latest hour (hover to see other rain measurements)
** Current wind speed in m/s (hover to see current wind gust speed)